This is the latest recevied weather packets stored in our database for station/object W3AJR. If no packets are shown the sender has not sent any weather packets the latest 10 day(s).
| Time | Temp. | Humidity | Pressure | Rain* | Wind** | Luminosity | Snow |
|---|---|---|---|---|---|---|---|
| 1778173852 | 13.33° C | 70% | 1010.5 hPa | 0 mm | - | 191 W/m² | - |
| 1778173549 | 13.89° C | 68% | 1011 hPa | 0 mm | - | 160 W/m² | - |
| 1778173246 | 13.89° C | 66% | 1010.7 hPa | 0 mm | - | 423 W/m² | - |
| 1778172942 | 13.33° C | 68% | 1010.9 hPa | 0 mm | - | 353 W/m² | - |
| 1778172639 | 13.33° C | 69% | 1011.1 hPa | 0 mm | - | 354 W/m² | - |
| 1778172334 | 13.89° C | 69% | 1011 hPa | 0 mm | - | 337 W/m² | - |
| 1778172032 | 13.33° C | 69% | 1011 hPa | 0 mm | - | 424 W/m² | - |
| 1778171729 | 13.33° C | 74% | 1011.2 hPa | 0 mm | - | 297 W/m² | - |
| 1778171427 | 12.78° C | 69% | 1011.7 hPa | 0 mm | - | 225 W/m² | - |
| 1778171121 | 13.33° C | 69% | 1011.7 hPa | 0 mm | - | 145 W/m² | - |
| 1778170818 | 13.33° C | 65% | 1011.8 hPa | 0 mm | - | 488 W/m² | - |
| 1778170515 | 13.33° C | 69% | 1011.7 hPa | 1.27 mm | - | 402 W/m² | - |
| 1778170212 | 12.78° C | 69% | 1011.6 hPa | 1.27 mm | - | 278 W/m² | - |
| 1778169908 | 12.78° C | 65% | 1011.7 hPa | 0 mm | - | 119 W/m² | - |
| 1778169604 | 13.33° C | 61% | 1011.4 hPa | 0 mm | - | 123 W/m² | - |
| 1778169299 | 13.33° C | 60% | 1011.5 hPa | 0 mm | - | 82 W/m² | - |
| 1778168997 | 13.33° C | 62% | 1011.7 hPa | 0 mm | - | 201 W/m² | - |
| 1778168693 | 13.33° C | 63% | 1011.4 hPa | 0 mm | - | 286 W/m² | - |
| 1778168390 | 13.33° C | 63% | 1011.6 hPa | 0 mm | - | 268 W/m² | - |
| 1778168087 | 13.33° C | 63% | 1011.6 hPa | 0 mm | - | 220 W/m² | - |
| 1778167784 | 12.78° C | 64% | 1011.8 hPa | 0 mm | - | 219 W/m² | - |
| 1778167479 | 13.33° C | 64% | 1011.8 hPa | 0 mm | - | 185 W/m² | - |
| 1778167176 | 12.78° C | 66% | 1011.8 hPa | 0 mm | - | 196 W/m² | - |
| 1778166872 | 12.78° C | 67% | 1011.8 hPa | 0 mm | - | 202 W/m² | - |
| 1778166569 | 12.78° C | 66% | 1011.7 hPa | 0 mm | - | 144 W/m² | - |
* Rain latest hour (hover to see other rain measurements)
** Current wind speed in m/s (hover to see current wind gust speed)